Regional Weather Roundup
Issued by NWS

Home | Current Version | Previous Version | Text Only | Print | Product List | Glossary On
Versions: 1 2 3 4 5 6 7 8 9 10 11 12 13 14 15 16 17 18 19 20 21 22 23 24 25 26 27 28 29 30 31 32 33 34 35 36 37 38 39 40 41 42 43 44 45 46 47 48 49 50
000
ASUS43 KLOT 290900
RWRIL

ILLINOIS REGIONAL WEATHER ROUNDUP
NATIONAL WEATHER SERVICE CHICAGO/ROMEOVILLE IL
300 AM CST THU JAN 29 2015

NOTE: "FAIR" INDICATES FEW OR NO CLOUDS BELOW 12,000 FEET WITH NO
SIGNIFICANT WEATHER AND/OR OBSTRUCTIONS TO VISIBILITY.

* THESE STATIONS ARE NOT UNDER NWS QUALITY CONTROL. THEY ALSO MAY NOT
  REPORT WEATHER SUCH AS PRECIPITATION OR FOG.

ILZ001-002-007-009-015-016-024-291000-
NORTHWEST ILLINOIS

CITY           SKY/WX    TMP DP  RH WIND       PRES   REMARKS
MOLINE         PTCLDY    35  30  82 NW6       29.69R WCI  30
STERLING*      PTCLDY    30  27  86 E3        29.69F
$$

ILZ003-004-008-010-011-017-018-291000-
NORTH CENTRAL ILLINOIS

CITY           SKY/WX    TMP DP  RH WIND       PRES   REMARKS
ROCKFORD       MOCLDY    31  26  82 E3        29.73F
$$

ILZ005-006-012>014-019>023-291000-
NORTHEAST ILLINOIS

CITY           SKY/WX    TMP DP  RH WIND       PRES   REMARKS
CHICAGO-OHARE  CLOUDY    35  27  72 S7        29.73F WCI  29
CHICAGO-MIDWAY CLOUDY    38  27  64 S10       29.73F WCI  31
AURORA         CLOUDY    36  28  73 SE7       29.72F WCI  30
WAUKEGAN       CLOUDY    33  26  75 CALM      29.73F
DUPAGE AIRPORT CLOUDY    35  27  72 S7        29.72F WCI  29
WHEELING       CLOUDY    35  26  69 S9        29.75F WCI  28
NORTHERLY ISL    N/A     37  26  65 S9          N/A  WCI  30
$$

LMZ740>746-291000-
SOUTHERN LAKE MICHIGAN

STATION/POSITION SKY/WX   TEMP    WIND        PRES    VSBY  WAVE
                          AIR SEA DIR/SP/G                  HT/PER
                          (F)     (DEG/KT/KT) (MB)    (MI)  (FT/S)
WAUKEGAN HARBOR            33     140/  8/ 11   N/A
HARRISON CRIB              34     160/ 15/ 18   N/A
BURNHAM HARBOR             36     160/  7/ 12   N/A
CALUMET HARBOR             37     160/ 10/ 15   N/A
MICHIGAN CITY              36     140/ 16/ 23   N/A
$$

ILZ025>027-034>036-040-047-049-050-058-095>099-291000-
WEST-CENTRAL ILLINOIS

CITY           SKY/WX    TMP DP  RH WIND       PRES   REMARKS
QUINCY         CLOUDY    45  36  70 NW23G30   29.76R
$$

ILZ028>032-037-038-041>044-048-051>054-059>061-291000-
CENTRAL ILLINOIS

CITY           SKY/WX    TMP DP  RH WIND       PRES   REMARKS
DECATUR        CLOUDY    42  33  70 S17       29.73F
PEORIA         MOCLDY    39  33  79 S8        29.68F WCI  33
SPRINGFIELD    CLOUDY    44  35  70 S22G28    29.72F
TAYLORVILLE    NOT AVBL
$$

ILZ033-039-045-046-055>057-062-063-291000-
EAST-CENTRAL ILLINOIS

CITY           SKY/WX    TMP DP  RH WIND       PRES   REMARKS
CHAMPAIGN      CLOUDY    38  31  76 S21       29.73F WCI  28
MATTOON        CLOUDY    40  31  70 S15G26    29.76F
$$

ILZ079-100>102-291000-
SOUTHWEST ILLINOIS

CITY           SKY/WX    TMP DP  RH WIND       PRES   REMARKS
BELLEVILLE     CLOUDY    50  40  70 VRB6      29.78F
CAHOKIA*       CLOUDY    53  40  61 SW9G23    29.77F
$$

ILZ064>066-069>071-074>076-080>082-084>086-088>090-092>094-291000-
SOUTH-CENTRAL ILLINOIS

CITY           SKY/WX    TMP DP  RH WIND       PRES   REMARKS
CARBONDALE     CLOUDY    51  35  54 SW15G26   29.87S
MT. VERNON     CLOUDY    46  34  61 SW13      29.84F
$$

ILZ067-068-072-073-078-083-087-091-291000-
SOUTHEAST ILLINOIS

CITY           SKY/WX    TMP DP  RH WIND       PRES   REMARKS
LAWRENCEVILLE  CLOUDY    41  33  73 S15       29.85F
$$

ABBREVIATIONS USED IN REMARKS
   TC - TEMPERATURE IN CELSIUS
  WCI - WIND CHILL INDEX
   HX - HEAT INDEX
  VSB - VISIBILITY
$$



USA.gov is the U.S. government's official web portal to all federal, state and local government web resources and services.